Location: El Carrer d�Abaix
(41.5797°N, 2.1791°E)
Time: 00:40:19
(UTC+00:00)

STARLINK-1378 - Pass Details

Date: 01 October 2020
Orbit: 548 x 551 km, 53.0° (Epoch: 27 October)

Event Time Altitude Azimuth Distance (km) Brightness Sun altitude
Exits shadow 04:54:17 13° 291° (WNW) 1,640 5.5 -10.9°
Maximum altitude 04:57:06 24° 341° (NNW) 1,162 5.1 -10.4°
Drops below altitude 10° 05:00:31 10° 36° (NE) 1,829 6.9 -9.8°
Sets 05:03:06 0° 51° (NE) 2,725 8.2 -9.3°
